CW4629 Weather Reports


time (UTC)temp
C
wind
direction
speed
KPH
gust
KPH
rain 1hr
cm
rain 24hr
cm
rain mn
cm
humidity
%
barometer
mb
20260901041120 21 45 0.0 0.0 0.00 0.53 0.53 54 1018.5
20260901040205 21 157 0.0 0.0 0.00 0.53 0.53 54 1018.6
20260901040105 21 157 0.0 0.0 0.00 0.53 0.53 53 1018.6
20260901035105 22 247 9.7 9.7 0.00 0.53 0.53 53 1018.1
20260901034108 22 264 11.3 17.7 0.00 0.53 0.53 54 1018.0
20260901033107 22 297 3.2 6.4 0.00 0.53 0.53 54 1017.7
20260901032205 22 253 8.0 14.5 0.00 0.53 0.53 53 1017.3
20260901030206 23 307 3.2 8.0 0.00 0.53 0.53 54 1017.1
20260901025306 23 270 0.0 0.0 0.00 0.53 0.53 55 1016.7
20260901024309 24 277 9.7 17.7 0.00 0.53 0.53 50 1016.3
20260901023323 26 303 9.7 12.9 0.00 0.53 0.53 44 1016.1
20260901022407 27 322 11.3 22.5 0.00 0.53 0.53 40 1015.7
20260901021408 27 90 11.3 19.3 0.00 0.53 0.53 44 1015.5
20260901020409 28 2 6.4 9.7 0.00 0.53 0.53 37 1015.2
20260901015408 29 63 9.7 16.1 0.00 0.53 0.53 34 1014.5
20260901013408 29 59 3.2 9.7 0.00 0.53 0.53 35 1014.2
20260901012423 30 60 8.0 12.9 0.00 0.53 0.53 35 1014.1
20260901011506 30 56 6.4 11.3 0.00 0.53 0.53 34 1014.2
20260901005606 30 80 11.3 17.7 0.00 0.53 0.53 35 1014.1
20260901002623 32 122 3.2 9.7 0.00 0.53 0.53 32 1014.1
20260901001621 32 87 6.4 11.3 0.00 0.53 0.53 31 1014.3
20260901000706 32 75 4.8 9.7 0.00 0.53 0.53 32 1014.1
20260831235706 31 171 1.6 6.4 0.00 0.53 0.53 33 1014.4
20260831234708 32 154 4.8 11.3 0.00 0.53 0.53 33 1014.4
20260831233705 32 147 6.4 12.9 0.00 0.53 0.53 33 1014.6
20260831232707 32 119 1.6 4.8 0.00 0.53 0.53 32 1014.7
20260831231805 33 151 1.6 4.8 0.00 0.53 0.53 31 1014.8
20260831230806 32 53 3.2 4.8 0.00 0.53 0.53 32 1014.7
20260831224807 31 75 9.7 14.5 0.00 0.53 0.53 33 1014.7
20260831222807 30 73 0.0 1.6 0.00 0.53 0.53 37 1015.1
20260831221807 29 73 9.7 19.3 0.00 0.53 0.53 37 1014.9
20260831214905 30 71 9.7 16.1 0.00 0.53 0.53 36 1015.3
20260831213921 30 43 11.3 25.7 0.00 0.53 0.53 37 1015.3
20260831212907 30 59 11.3 16.1 0.00 0.53 0.53 38 1015.6
20260831211006 30 66 11.3 22.5 0.03 0.53 0.53 38 1015.9
20260831210024 28 92 3.2 6.4 0.03 0.53 0.53 40 1016.1
20260831205022 28 112 3.2 4.8 0.03 0.53 0.53 42 1016.6
20260831204104 28 77 4.8 11.3 0.05 0.53 0.53 44 1016.6
20260831203106 27 67 0.0 1.6 0.05 0.53 0.53 46 1016.9
20260831202104 26 1 1.6 6.4 0.05 0.53 0.53 55 1017.0
20260831201124 24 302 9.7 14.5 0.03 0.51 0.51 67 1017.2
20260831200221 23 336 3.2 6.4 0.05 0.51 0.51 70 1016.7
20260831195307 23 103 4.8 9.7 0.08 0.51 0.51 71 1017.4
20260831194308 24 166 8.0 11.3 0.05 0.48 0.48 69 1017.6
20260831192306 23 45 0.0 0.0 0.46 0.48 0.48 75 1017.2
20260831191405 23 247 0.0 0.0 0.48 0.48 0.48 73 1017.4
20260831190405 23 255 1.6 6.4 0.46 0.46 0.46 70 1017.8
20260831185421 23 90 3.2 6.4 0.43 0.43 0.43 71 1017.8
20260831184508 22 67 3.2 8.0 0.43 0.43 0.43 73 1017.9
20260831183605 22 14 4.8 8.0 0.43 0.43 0.43 68 1017.9
20260831182624 26 98 6.4 11.3 0.13 0.13 0.10 52 1018.2
20260831180706 27 98 9.7 14.5 0.00 0.00 0.00 44 1017.3
20260831175707 28 114 17.7 25.7 0.00 0.00 0.00 42 1017.3
20260831174804 29 108 11.3 20.9 0.00 0.00 0.00 38 1017.3
20260831172905 29 89 8.0 12.9 0.00 0.00 0.00 39 1017.2
20260831172820 29 83 11.3 16.1 0.00 0.00 0.00 38 1017.2
20260831171907 30 86 6.4 12.9 0.00 0.00 0.00 38 1017.2
20260831171806 30 99 8.0 11.3 0.00 0.00 0.00 38 1017.3
20260831170822 30 59 8.0 12.9 0.00 0.00 0.00 36 1017.3
20260831170706 30 66 8.0 12.9 0.00 0.00 0.00 37 1017.3
20260831164707 29 95 8.0 16.1 0.00 0.00 0.00 38 1017.4
20260831163706 28 87 8.0 12.9 0.00 0.00 0.00 39 1017.6
20260831162705 28 83 11.3 19.3 0.00 0.00 0.00 38 1017.7
20260831161707 29 72 11.3 19.3 0.00 0.00 0.00 38 1017.6
20260831160704 28 81 8.0 14.5 0.00 0.00 0.00 38 1017.5
20260831160605 28 71 6.4 12.9 0.00 0.00 0.00 39 1017.4
20260831155622 28 113 4.8 8.0 0.00 0.00 0.00 39 1017.5
20260831154606 28 97 3.2 6.4 0.00 0.00 0.00 35 1017.5
20260831153621 27 225 0.0 0.0 0.00 0.00 0.00 35 1017.6
20260831152622 26 247 0.0 0.0 0.00 0.00 0.00 36 1017.6
20260831151703 26 246 3.2 4.8 0.00 0.00 0.00 36 1017.6
20260831150706 25 292 1.6 6.4 0.00 0.00 0.00 36 1017.5
20260831145706 25 292 1.6 4.8 0.00 0.00 0.00 37 1017.6
20260831144805 24 315 1.6 3.2 0.00 0.00 0.00 38 1017.7
20260831142806 23 292 0.0 0.0 0.00 0.00 0.00 41 1017.5
20260831141821 22 303 0.0 1.6 0.00 0.00 0.00 43 1017.5
20260831140821 22 292 0.0 0.0 0.00 0.00 0.00 44 1017.4
20260831135907 21 292 0.0 0.0 0.00 0.00 0.00 45 1017.2
20260831135003 21 292 0.0 0.0 0.00 0.00 0.00 44 1017.2
20260831134019 20 302 4.8 4.8 0.00 0.00 0.00 48 1016.9
20260831133021 20 315 0.0 0.0 0.00 0.00 0.00 45 1016.8
20260831132107 20 315 0.0 0.0 0.00 0.00 0.00 46 1016.7
20260831125220 20 22 0.0 1.6 0.00 0.00 0.00 47 1016.4
20260831124303 20 337 0.0 0.0 0.00 0.00 0.00 46 1016.3
20260831123304 20 337 1.6 3.2 0.00 0.00 0.00 47 1016.3
20260831122204 21 337 0.0 1.6 0.00 0.00 0.00 45 1016.0
20260831121219 21 337 0.0 0.0 0.00 0.00 0.00 41 1016.2
20260831120304 21 22 0.0 0.0 0.00 0.00 0.00 40 1016.0
20260831115319 21 112 1.6 3.2 0.00 0.00 0.00 40 1016.0
20260831114406 21 236 4.8 8.0 0.00 0.00 0.00 42 1015.9
20260831113405 21 315 0.0 0.0 0.00 0.00 0.00 45 1015.9
20260831112426 21 315 0.0 0.0 0.00 0.00 0.00 46 1015.9
20260831111520 21 331 0.0 3.2 0.00 0.00 0.00 43 1016.0
20260831110604 21 45 1.6 3.2 0.00 0.00 0.00 42 1015.9
20260831105622 21 67 1.6 6.4 0.00 0.00 0.00 41 1016.2
20260831104703 21 247 1.6 3.2 0.00 0.00 0.00 42 1016.0
20260831103705 21 247 3.2 4.8 0.00 0.00 0.00 47 1016.0
20260831102705 21 339 0.0 1.6 0.00 0.00 0.00 48 1015.9
20260831101720 21 315 0.0 3.2 0.00 0.00 0.00 47 1016.0
20260831100803 21 22 1.6 1.6 0.00 0.00 0.00 46 1016.0
20260831095808 21 337 0.0 1.6 0.00 0.00 0.00 44 1016.0
20260831094904 21 337 0.0 0.0 0.00 0.00 0.00 47 1015.8
20260831093919 21 337 0.0 0.0 0.00 0.00 0.00 48 1015.7
20260831092005 22 337 0.0 0.0 0.00 0.00 0.00 43 1015.5
20260831091007 22 337 3.2 3.2 0.00 0.00 0.00 40 1015.4
20260831090006 21 360 3.2 4.8 0.00 0.00 0.00 47 1015.3
20260831085006 22 292 1.6 3.2 0.00 0.00 0.00 46 1015.2
20260831084020 22 292 0.0 0.0 0.00 0.00 0.00 44 1015.2
20260831083019 22 292 0.0 0.0 0.00 0.00 0.00 45 1015.2
20260831082105 22 315 1.6 1.6 0.00 0.00 0.00 42 1015.2
20260831081107 22 315 0.0 0.0 0.00 0.00 0.00 43 1015.1
20260831080105 22 315 0.0 0.0 0.00 0.00 0.00 42 1014.9
20260831075105 23 315 0.0 0.0 0.00 0.00 0.00 41 1014.9
20260831075022 23 315 0.0 0.0 0.00 0.00 0.00 41 1014.9
20260831074103 23 352 0.0 3.2 0.00 0.00 0.00 38 1014.8
20260831073120 23 360 3.2 3.2 0.00 0.00 0.00 39 1014.9
20260831072204 24 67 0.0 0.0 0.00 0.00 0.00 38 1015.1
20260831071220 23 337 0.0 0.0 0.00 0.00 0.00 38 1014.9
20260831070303 24 337 0.0 0.0 0.00 0.00 0.00 37 1014.8
20260831065319 24 337 0.0 0.0 0.00 0.00 0.00 37 1014.7
20260831064305 25 337 0.0 0.0 0.00 0.00 0.00 36 1014.8
20260831063304 25 337 0.0 0.0 0.00 0.00 0.00 34 1014.7
20260831061306 25 314 6.4 9.7 0.00 0.00 0.00 36 1014.6
20260831060320 26 22 1.6 3.2 0.00 0.00 0.00 34 1014.7
20260831055319 26 90 1.6 1.6 0.00 0.00 0.00 35 1014.7
20260831053319 26 247 0.0 0.0 0.00 0.00 0.00 34 1014.7
20260831052417 26 247 0.0 0.0 0.00 0.00 0.00 32 1014.9
20260831050517 26 315 0.0 0.0 0.00 0.00 0.00 35 1014.6
20260831044618 26 337 0.0 0.0 0.00 0.00 0.00 36 1014.4
20260831043619 26 337 0.0 0.0 0.00 0.00 0.00 36 1014.5
20260831042619 27 337 0.0 0.0 0.00 0.00 0.00 35 1014.4